TimeEDT,TemperatureF,Dew PointF,Humidity,Sea Level PressureIn,VisibilityMPH,Wind Direction,Wind SpeedMPH,Gust SpeedMPH,PrecipitationIn,Events,Conditions,WindDirDegrees,DateUTC
12:51 AM,64.0,62.1,93,29.91,7.0,Calm,Calm,-,N/A,,Clear,0,2013-08-28 04:51:00
1:51 AM,64.0,62.1,93,29.89,6.0,Calm,Calm,-,N/A,,Partly Cloudy,0,2013-08-28 05:51:00
2:51 AM,63.0,62.1,97,29.88,6.0,Calm,Calm,-,N/A,,Scattered Clouds,0,2013-08-28 06:51:00
3:51 AM,64.0,62.1,93,29.88,7.0,Calm,Calm,-,N/A,,Overcast,0,2013-08-28 07:51:00
4:51 AM,63.0,62.1,97,29.88,6.0,Calm,Calm,-,N/A,,Scattered Clouds,0,2013-08-28 08:51:00
5:51 AM,63.0,61.0,93,29.89,4.0,Calm,Calm,-,N/A,,Scattered Clouds,0,2013-08-28 09:51:00
6:51 AM,64.9,63.0,93,29.90,4.0,Calm,Calm,-,N/A,,Scattered Clouds,0,2013-08-28 10:51:00
7:51 AM,66.9,64.0,90,29.91,5.0,ENE,3.5,-,N/A,,Mostly Cloudy,60,2013-08-28 11:51:00
8:51 AM,68.0,64.9,90,29.92,5.0,ESE,3.5,-,N/A,,Partly Cloudy,120,2013-08-28 12:51:00
9:51 AM,71.1,66.0,84,29.92,9.0,Variable,3.5,-,N/A,,Mostly Cloudy,0,2013-08-28 13:51:00
10:51 AM,73.9,66.0,76,29.92,10.0,East,4.6,-,N/A,,Clear,80,2013-08-28 14:51:00
11:51 AM,73.9,64.9,73,29.93,10.0,East,8.1,-,N/A,,Partly Cloudy,100,2013-08-28 15:51:00
12:51 PM,77.0,64.9,66,29.91,10.0,East,10.4,-,N/A,,Partly Cloudy,80,2013-08-28 16:51:00
1:51 PM,77.0,64.9,66,29.90,10.0,ENE,10.4,-,N/A,,Partly Cloudy,70,2013-08-28 17:51:00
2:51 PM,75.9,64.9,69,29.89,10.0,East,10.4,-,N/A,,Clear,80,2013-08-28 18:51:00
3:51 PM,75.9,64.9,69,29.90,10.0,South,8.1,-,N/A,,Clear,170,2013-08-28 19:51:00
4:51 PM,73.9,64.9,73,29.90,10.0,Variable,5.8,-,N/A,,Clear,0,2013-08-28 20:51:00
5:51 PM,70.0,63.0,78,29.90,10.0,SSE,8.1,-,N/A,,Partly Cloudy,150,2013-08-28 21:51:00
6:51 PM,66.0,63.0,90,29.93,4.0,South,3.5,-,N/A,,Overcast,190,2013-08-28 22:51:00
7:51 PM,64.9,63.0,93,29.96,8.0,Calm,Calm,-,N/A,,Overcast,0,2013-08-28 23:51:00
8:40 PM,64.0,63.0,96,30.00,1.5,ENE,13.8,20.7,0.01,Rain,Light Rain,60,2013-08-29 00:40:00
8:51 PM,64.0,63.0,96,30.01,1.5,NE,10.4,-,0.01,Rain,Light Rain,50,2013-08-29 00:51:00
9:30 PM,64.0,63.0,96,30.00,8.0,Calm,Calm,-,0.01,Rain,Light Rain,0,2013-08-29 01:30:00
9:51 PM,64.9,63.0,93,30.00,6.0,East,3.5,-,0.01,Rain,Light Rain,90,2013-08-29 01:51:00
10:51 PM,64.9,64.0,97,30.01,5.0,North,5.8,-,0.00,Rain,Light Rain,360,2013-08-29 02:51:00
11:03 PM,66.0,64.0,93,30.00,5.0,North,3.5,-,0.01,Rain,Light Rain,350,2013-08-29 03:03:00
11:13 PM,66.0,64.0,93,30.00,7.0,Calm,Calm,-,0.01,,Overcast,0,2013-08-29 03:13:00
11:20 PM,66.0,64.0,93,30.01,6.0,Calm,Calm,-,0.01,,Overcast,0,2013-08-29 03:20:00
11:29 PM,66.0,64.0,93,30.01,5.0,Calm,Calm,-,0.01,,Overcast,0,2013-08-29 03:29:00
11:44 PM,66.0,64.0,93,30.01,6.0,Calm,Calm,-,0.01,Rain,Light Rain,0,2013-08-29 03:44:00
11:51 PM,66.0,64.0,93,30.00,5.0,Calm,Calm,-,0.01,Rain,Light Rain,0,2013-08-29 03:51:00